Year,Month,Day,Hour,Minute,Value (Times are PST for windgust in km/hr)
2010,01,19,00,00,8.10
2010,01,19,00,01,8.10
2010,01,19,00,02,8.10
2010,01,19,00,03,8.10
2010,01,19,00,04,6.40
2010,01,19,00,05,6.40
2010,01,19,00,06,6.40
2010,01,19,00,07,6.40
2010,01,19,00,08,6.40
2010,01,19,00,09,6.40
2010,01,19,00,10,8.10
2010,01,19,00,11,8.10
2010,01,19,00,12,8.10
2010,01,19,00,13,8.10
2010,01,19,00,14,8.10
2010,01,19,00,15,8.10
2010,01,19,00,16,8.10
2010,01,19,00,17,8.10
2010,01,19,00,18,8.10
2010,01,19,00,19,8.10
2010,01,19,00,20,8.10
2010,01,19,00,21,8.10
2010,01,19,00,22,8.10
2010,01,19,00,23,6.40
2010,01,19,00,24,8.10
2010,01,19,00,25,6.40
2010,01,19,00,26,6.40
2010,01,19,00,27,6.40
2010,01,19,00,28,6.40
2010,01,19,00,29,4.80
2010,01,19,00,30,6.40
2010,01,19,00,31,8.10
2010,01,19,00,32,8.10
2010,01,19,00,33,6.40
2010,01,19,00,34,8.10
2010,01,19,00,35,6.40
2010,01,19,00,36,8.10
2010,01,19,00,37,6.40
2010,01,19,00,38,6.40
2010,01,19,00,39,6.40
2010,01,19,00,40,6.40
2010,01,19,00,41,6.40
2010,01,19,00,42,8.10
2010,01,19,00,43,6.40
2010,01,19,00,44,4.80
2010,01,19,00,45,4.80
2010,01,19,00,46,3.20
2010,01,19,00,47,4.80
2010,01,19,00,48,4.80
2010,01,19,00,49,4.80
2010,01,19,00,50,3.20
2010,01,19,00,51,4.80
2010,01,19,00,52,4.80
2010,01,19,00,53,4.80
2010,01,19,00,54,6.40
2010,01,19,00,55,4.80
2010,01,19,00,56,6.40
2010,01,19,00,57,6.40
2010,01,19,00,58,6.40
2010,01,19,00,59,4.80
2010,01,19,01,00,4.80
2010,01,19,01,01,6.40
2010,01,19,01,02,4.80
2010,01,19,01,03,4.80
2010,01,19,01,04,4.80
2010,01,19,01,05,4.80
2010,01,19,01,06,3.20
2010,01,19,01,07,4.80
2010,01,19,01,08,6.40
2010,01,19,01,09,6.40
2010,01,19,01,10,6.40
2010,01,19,01,11,4.80
2010,01,19,01,12,1.60
2010,01,19,01,13,1.60
2010,01,19,01,14,1.60
2010,01,19,01,15,3.20
2010,01,19,01,16,3.20
2010,01,19,01,17,3.20
2010,01,19,01,18,3.20
2010,01,19,01,19,4.80
2010,01,19,01,20,4.80
2010,01,19,01,21,4.80
2010,01,19,01,22,6.40
2010,01,19,01,23,6.40
2010,01,19,01,24,6.40
2010,01,19,01,25,4.80
2010,01,19,01,26,4.80
2010,01,19,01,27,3.20
2010,01,19,01,28,3.20
2010,01,19,01,29,4.80
2010,01,19,01,30,4.80
2010,01,19,01,31,4.80
2010,01,19,01,32,6.40
2010,01,19,01,33,6.40
2010,01,19,01,34,8.10
2010,01,19,01,35,6.40
2010,01,19,01,36,6.40
2010,01,19,01,37,4.80
2010,01,19,01,38,4.80
2010,01,19,01,39,3.20
2010,01,19,01,40,4.80
2010,01,19,01,41,3.20
2010,01,19,01,42,3.20
2010,01,19,01,43,4.80
2010,01,19,01,44,3.20
2010,01,19,01,45,3.20
2010,01,19,01,46,3.20
2010,01,19,01,47,3.20
2010,01,19,01,48,3.20
2010,01,19,01,49,1.60
2010,01,19,01,50,1.60
2010,01,19,01,51,3.20
2010,01,19,01,52,3.20
2010,01,19,01,53,4.80
2010,01,19,01,54,6.40
2010,01,19,01,55,8.10
2010,01,19,01,56,6.40
2010,01,19,01,57,6.40
2010,01,19,01,58,4.80
2010,01,19,01,59,4.80
2010,01,19,02,00,6.40
2010,01,19,02,01,8.10
2010,01,19,02,02,6.40
2010,01,19,02,03,4.80
2010,01,19,02,04,4.80
2010,01,19,02,05,4.80
2010,01,19,02,06,6.40
2010,01,19,02,07,4.80
2010,01,19,02,08,3.20
2010,01,19,02,09,3.20
2010,01,19,02,10,3.20
2010,01,19,02,11,4.80
2010,01,19,02,12,3.20
2010,01,19,02,13,3.20
2010,01,19,02,14,1.60
2010,01,19,02,15,3.20
2010,01,19,02,16,1.60
2010,01,19,02,17,0.00
2010,01,19,02,18,1.60
2010,01,19,02,19,3.20
2010,01,19,02,20,1.60
2010,01,19,02,21,0.00
2010,01,19,02,22,0.00
2010,01,19,02,23,0.00
2010,01,19,02,24,0.00
2010,01,19,02,25,0.00
2010,01,19,02,26,0.00
2010,01,19,02,27,0.00
2010,01,19,02,28,3.20
2010,01,19,02,29,3.20
2010,01,19,02,30,3.20
2010,01,19,02,31,1.60
2010,01,19,02,32,0.00
2010,01,19,02,33,0.00
2010,01,19,02,34,0.00
2010,01,19,02,35,0.00
2010,01,19,02,36,0.00
2010,01,19,02,37,0.00
2010,01,19,02,38,1.60
2010,01,19,02,39,3.20
2010,01,19,02,40,3.20
2010,01,19,02,41,3.20
2010,01,19,02,42,3.20
2010,01,19,02,43,3.20
2010,01,19,02,44,4.80
2010,01,19,02,45,3.20
2010,01,19,02,46,4.80
2010,01,19,02,47,3.20
2010,01,19,02,48,3.20
2010,01,19,02,49,4.80
2010,01,19,02,50,4.80
2010,01,19,02,51,4.80
2010,01,19,02,52,6.40
2010,01,19,02,53,6.40
2010,01,19,02,54,6.40
2010,01,19,02,55,6.40
2010,01,19,02,56,6.40
2010,01,19,02,57,6.40
2010,01,19,02,58,6.40
2010,01,19,02,59,4.80
2010,01,19,03,00,3.20
2010,01,19,03,01,4.80
2010,01,19,03,02,4.80
2010,01,19,03,03,6.40
2010,01,19,03,06,8.10
2010,01,19,03,07,8.10
2010,01,19,03,08,8.10
2010,01,19,03,09,9.60
2010,01,19,03,10,8.10
2010,01,19,03,11,8.10
2010,01,19,03,12,9.60
2010,01,19,03,13,8.10
2010,01,19,03,14,9.60
2010,01,19,03,15,6.40
2010,01,19,03,16,8.10
2010,01,19,03,17,3.20
2010,01,19,03,18,4.80
2010,01,19,03,19,6.40
2010,01,19,03,20,6.40
2010,01,19,03,21,4.80
2010,01,19,03,22,6.40
2010,01,19,03,23,6.40
2010,01,19,03,24,8.10
2010,01,19,03,25,6.40
2010,01,19,03,26,8.10
2010,01,19,03,27,6.40
2010,01,19,03,28,4.80
2010,01,19,03,29,4.80
2010,01,19,03,30,8.10
2010,01,19,03,31,9.60
2010,01,19,03,32,9.60
2010,01,19,03,33,4.80
2010,01,19,03,34,6.40
2010,01,19,03,35,6.40
2010,01,19,03,36,4.80
2010,01,19,03,37,6.40
2010,01,19,03,38,6.40
2010,01,19,03,39,4.80
2010,01,19,03,40,6.40
2010,01,19,03,41,4.80
2010,01,19,03,42,3.20
2010,01,19,03,43,4.80
2010,01,19,03,44,8.10
2010,01,19,03,45,4.80
2010,01,19,03,46,3.20
2010,01,19,03,47,4.80
2010,01,19,03,48,0.00
2010,01,19,03,49,1.60
2010,01,19,03,50,1.60
2010,01,19,03,51,0.00
2010,01,19,03,52,0.00
2010,01,19,03,53,0.00
2010,01,19,03,54,3.20
2010,01,19,03,55,3.20
2010,01,19,03,56,3.20
2010,01,19,03,57,4.80
2010,01,19,03,58,3.20
2010,01,19,03,59,4.80
2010,01,19,04,00,3.20
2010,01,19,04,01,1.60
2010,01,19,04,02,3.20
2010,01,19,04,03,4.80
2010,01,19,04,04,3.20
2010,01,19,04,05,3.20
2010,01,19,04,06,4.80
2010,01,19,04,07,4.80
2010,01,19,04,08,3.20
2010,01,19,04,09,3.20
2010,01,19,04,10,4.80
2010,01,19,04,11,4.80
2010,01,19,04,12,3.20
2010,01,19,04,13,4.80
2010,01,19,04,14,8.10
2010,01,19,04,15,8.10
2010,01,19,04,16,4.80
2010,01,19,04,17,6.40
2010,01,19,04,18,4.80
2010,01,19,04,19,4.80
2010,01,19,04,20,4.80
2010,01,19,04,21,3.20
2010,01,19,04,22,8.10
2010,01,19,04,23,9.60
2010,01,19,04,24,8.10
2010,01,19,04,25,8.10
2010,01,19,04,26,8.10
2010,01,19,04,27,8.10
2010,01,19,04,28,8.10
2010,01,19,04,29,8.10
2010,01,19,04,30,8.10
2010,01,19,04,31,8.10
2010,01,19,04,32,8.10
2010,01,19,04,33,6.40
2010,01,19,04,34,6.40
2010,01,19,04,35,6.40
2010,01,19,04,36,4.80
2010,01,19,04,37,3.20
2010,01,19,04,38,3.20
2010,01,19,04,39,0.00
2010,01,19,04,40,1.60
2010,01,19,04,41,4.80
2010,01,19,04,42,3.20
2010,01,19,04,43,6.40
2010,01,19,04,44,6.40
2010,01,19,04,45,1.60
2010,01,19,04,46,3.20
2010,01,19,04,47,3.20
2010,01,19,04,48,9.60
2010,01,19,04,49,14.50
2010,01,19,04,50,9.60
2010,01,19,04,51,9.60
2010,01,19,04,52,8.10
2010,01,19,04,53,4.80
2010,01,19,04,54,6.40
2010,01,19,04,55,6.40
2010,01,19,04,56,8.10
2010,01,19,04,57,8.10
2010,01,19,04,58,1.60
2010,01,19,04,59,0.00
2010,01,19,05,00,4.80
2010,01,19,05,01,4.80
2010,01,19,05,02,3.20
2010,01,19,05,03,4.80
2010,01,19,05,04,6.40
2010,01,19,05,05,6.40
2010,01,19,05,06,4.80
2010,01,19,05,07,6.40
2010,01,19,05,08,8.10
2010,01,19,05,09,4.80
2010,01,19,05,10,4.80
2010,01,19,05,11,3.20
2010,01,19,05,12,3.20
2010,01,19,05,13,1.60
2010,01,19,05,14,0.00
2010,01,19,05,15,3.20
2010,01,19,05,16,3.20
2010,01,19,05,17,3.20
2010,01,19,05,18,0.00
2010,01,19,05,19,0.00
2010,01,19,05,20,0.00
2010,01,19,05,21,0.00
2010,01,19,05,22,1.60
2010,01,19,05,23,4.80
2010,01,19,05,24,3.20
2010,01,19,05,25,3.20
2010,01,19,05,26,4.80
2010,01,19,05,27,3.20
2010,01,19,05,28,4.80
2010,01,19,05,29,4.80
2010,01,19,05,30,4.80
2010,01,19,05,31,4.80
2010,01,19,05,32,3.20
2010,01,19,05,33,1.60
2010,01,19,05,34,3.20
2010,01,19,05,35,3.20
2010,01,19,05,36,4.80
2010,01,19,05,37,4.80
2010,01,19,05,38,6.40
2010,01,19,05,39,6.40
2010,01,19,05,40,4.80
2010,01,19,05,41,8.10
2010,01,19,05,42,8.10
2010,01,19,05,43,3.20
2010,01,19,05,44,4.80
2010,01,19,05,45,4.80
2010,01,19,05,46,4.80
2010,01,19,05,47,3.20
2010,01,19,05,48,3.20
2010,01,19,05,49,3.20
2010,01,19,05,50,1.60
2010,01,19,05,51,1.60
2010,01,19,05,52,1.60
2010,01,19,05,53,0.00
2010,01,19,05,54,0.00
2010,01,19,05,55,0.00
2010,01,19,05,56,0.00
2010,01,19,05,57,0.00
2010,01,19,05,58,0.00
2010,01,19,05,59,3.20
2010,01,19,06,00,3.20
2010,01,19,06,01,3.20
2010,01,19,06,02,3.20
2010,01,19,06,03,3.20
2010,01,19,06,04,3.20
2010,01,19,06,05,1.60
2010,01,19,06,06,1.60
2010,01,19,06,07,3.20
2010,01,19,06,08,3.20
2010,01,19,06,09,3.20
2010,01,19,06,10,1.60
2010,01,19,06,11,3.20
2010,01,19,06,12,3.20
2010,01,19,06,13,0.00
2010,01,19,06,14,0.00
2010,01,19,06,15,0.00
2010,01,19,06,16,0.00
2010,01,19,06,17,1.60
2010,01,19,06,18,3.20
2010,01,19,06,19,3.20
2010,01,19,06,20,4.80
2010,01,19,06,21,8.10
2010,01,19,06,22,9.60
2010,01,19,06,23,9.60
2010,01,19,06,24,8.10
2010,01,19,06,25,9.60
2010,01,19,06,26,6.40
2010,01,19,06,27,8.10
2010,01,19,06,28,8.10
2010,01,19,06,29,11.30
2010,01,19,06,30,16.10
2010,01,19,06,31,14.50
2010,01,19,06,32,17.70
2010,01,19,06,33,19.30
2010,01,19,06,34,16.10
2010,01,19,06,35,16.10
2010,01,19,06,36,17.70
2010,01,19,06,37,16.10
2010,01,19,06,38,16.10
2010,01,19,06,39,14.50
2010,01,19,06,40,14.50
2010,01,19,06,41,17.70
2010,01,19,06,42,19.30
2010,01,19,06,43,17.70
2010,01,19,06,44,17.70
2010,01,19,06,45,19.30
2010,01,19,06,46,20.90
2010,01,19,06,47,24.20
2010,01,19,06,48,25.70
2010,01,19,06,49,22.50
2010,01,19,06,50,19.30
2010,01,19,06,51,25.70
2010,01,19,06,52,19.30
2010,01,19,06,53,14.50
2010,01,19,06,54,19.30
2010,01,19,06,55,24.20
2010,01,19,06,56,24.20
2010,01,19,06,57,24.20
2010,01,19,06,58,30.60
2010,01,19,06,59,22.50
2010,01,19,07,00,17.70
2010,01,19,07,01,24.20
2010,01,19,07,02,17.70
2010,01,19,07,03,20.90
2010,01,19,07,04,16.10
2010,01,19,07,05,14.50
2010,01,19,07,06,20.90
2010,01,19,07,07,17.70
2010,01,19,07,08,19.30
2010,01,19,07,09,16.10
2010,01,19,07,10,14.50
2010,01,19,07,11,19.30
2010,01,19,07,12,17.70
2010,01,19,07,13,14.50
2010,01,19,07,14,17.70
2010,01,19,07,15,16.10
2010,01,19,07,16,14.50
2010,01,19,07,17,16.10
2010,01,19,07,18,17.70
2010,01,19,07,19,16.10
2010,01,19,07,20,16.10
2010,01,19,07,21,16.10
2010,01,19,07,22,19.30
2010,01,19,07,23,17.70
2010,01,19,07,24,20.90
2010,01,19,07,25,19.30
2010,01,19,07,26,17.70
2010,01,19,07,27,17.70
2010,01,19,07,28,12.90
2010,01,19,07,29,11.30
2010,01,19,07,30,11.30
2010,01,19,07,31,9.60
2010,01,19,07,32,11.30
2010,01,19,07,33,9.60
2010,01,19,07,34,11.30
2010,01,19,07,35,8.10
2010,01,19,07,36,8.10
2010,01,19,07,37,9.60
2010,01,19,07,38,9.60
2010,01,19,07,39,9.60
2010,01,19,07,40,9.60
2010,01,19,07,41,8.10
2010,01,19,07,42,16.10
2010,01,19,07,43,9.60
2010,01,19,07,44,9.60
2010,01,19,07,45,16.10
2010,01,19,07,46,12.90
2010,01,19,07,47,9.60
2010,01,19,07,48,11.30
2010,01,19,07,49,9.60
2010,01,19,07,50,9.60
2010,01,19,07,51,14.50
2010,01,19,07,52,14.50
2010,01,19,07,53,16.10
2010,01,19,07,54,16.10
2010,01,19,07,55,19.30
2010,01,19,07,56,16.10
2010,01,19,07,57,17.70
2010,01,19,07,58,16.10
2010,01,19,07,59,14.50
2010,01,19,08,00,14.50
2010,01,19,08,01,14.50
2010,01,19,08,02,11.30
2010,01,19,08,03,11.30
2010,01,19,08,04,16.10
2010,01,19,08,05,12.90
2010,01,19,08,06,17.70
2010,01,19,08,07,17.70
2010,01,19,08,08,16.10
2010,01,19,08,09,14.50
2010,01,19,08,10,16.10
2010,01,19,08,11,25.70
2010,01,19,08,12,19.30
2010,01,19,08,13,17.70
2010,01,19,08,14,17.70
2010,01,19,08,15,20.90
2010,01,19,08,16,16.10
2010,01,19,08,17,16.10
2010,01,19,08,18,20.90
2010,01,19,08,19,20.90
2010,01,19,08,20,24.20
2010,01,19,08,21,19.30
2010,01,19,08,22,19.30
2010,01,19,08,23,16.10
2010,01,19,08,24,16.10
2010,01,19,08,25,17.70
2010,01,19,08,26,17.70
2010,01,19,08,27,17.70
2010,01,19,08,28,14.50
2010,01,19,08,29,17.70
2010,01,19,08,30,17.70
2010,01,19,08,31,19.30
2010,01,19,08,32,16.10
2010,01,19,08,33,16.10
2010,01,19,08,34,17.70
2010,01,19,08,35,17.70
2010,01,19,08,36,19.30
2010,01,19,08,37,16.10
2010,01,19,08,38,14.50
2010,01,19,08,39,11.30
2010,01,19,08,40,14.50
2010,01,19,08,41,11.30
2010,01,19,08,42,11.30
2010,01,19,08,43,16.10
2010,01,19,08,44,14.50
2010,01,19,08,45,14.50
2010,01,19,08,46,17.70
2010,01,19,08,47,16.10
2010,01,19,08,48,17.70
2010,01,19,08,49,17.70
2010,01,19,08,50,19.30
2010,01,19,08,51,19.30
2010,01,19,08,52,20.90
2010,01,19,08,53,19.30
2010,01,19,08,54,19.30
2010,01,19,08,55,19.30
2010,01,19,08,56,16.10
2010,01,19,08,57,19.30
2010,01,19,08,58,20.90
2010,01,19,08,59,22.50
2010,01,19,09,00,22.50
2010,01,19,09,01,24.20
2010,01,19,09,02,19.30
2010,01,19,09,03,20.90
2010,01,19,09,04,20.90
2010,01,19,09,05,17.70
2010,01,19,09,06,17.70
2010,01,19,09,07,16.10
2010,01,19,09,08,19.30
2010,01,19,09,09,16.10
2010,01,19,09,10,19.30
2010,01,19,09,11,19.30
2010,01,19,09,12,17.70
2010,01,19,09,13,14.50
2010,01,19,09,14,17.70
2010,01,19,09,15,16.10
2010,01,19,09,16,14.50
2010,01,19,09,17,14.50
2010,01,19,09,18,14.50
2010,01,19,09,19,14.50
2010,01,19,09,20,16.10
2010,01,19,09,21,16.10
2010,01,19,09,22,16.10
2010,01,19,09,23,14.50
2010,01,19,09,24,14.50
2010,01,19,09,25,12.90
2010,01,19,09,26,16.10
2010,01,19,09,27,17.70
2010,01,19,09,28,16.10
2010,01,19,09,29,16.10
2010,01,19,09,30,17.70
2010,01,19,09,31,16.10
2010,01,19,09,32,14.50
2010,01,19,09,33,17.70
2010,01,19,09,34,14.50
2010,01,19,09,35,17.70
2010,01,19,09,36,16.10
2010,01,19,09,37,14.50
2010,01,19,09,38,19.30
2010,01,19,09,39,17.70
2010,01,19,09,40,16.10
2010,01,19,09,41,16.10
2010,01,19,09,42,16.10
2010,01,19,09,43,22.50
2010,01,19,09,44,19.30
2010,01,19,09,45,16.10
2010,01,19,09,46,17.70
2010,01,19,09,47,22.50
2010,01,19,09,48,19.30
2010,01,19,09,49,19.30
2010,01,19,09,50,17.70
2010,01,19,09,51,20.90
2010,01,19,09,52,19.30
2010,01,19,09,53,17.70
2010,01,19,09,54,14.50
2010,01,19,09,55,17.70
2010,01,19,09,56,19.30
2010,01,19,09,57,16.10
2010,01,19,09,58,16.10
2010,01,19,09,59,25.70
2010,01,19,10,00,17.70
2010,01,19,10,01,22.50
2010,01,19,10,02,22.50
2010,01,19,10,03,29.00
2010,01,19,10,04,27.40
2010,01,19,10,05,20.90
2010,01,19,10,06,25.70
2010,01,19,10,07,24.20
2010,01,19,10,08,25.70
2010,01,19,10,09,25.70
2010,01,19,10,10,27.40
2010,01,19,10,11,25.70
2010,01,19,10,12,24.20
2010,01,19,10,13,29.00
2010,01,19,10,14,32.20
2010,01,19,10,15,27.40
2010,01,19,10,16,32.20
2010,01,19,10,17,25.70
2010,01,19,10,18,29.00
2010,01,19,10,19,29.00
2010,01,19,10,20,24.20
2010,01,19,10,21,25.70
2010,01,19,10,22,22.50
2010,01,19,10,23,29.00
2010,01,19,10,24,24.20
2010,01,19,10,25,22.50
2010,01,19,10,26,22.50
2010,01,19,10,27,20.90
2010,01,19,10,28,25.70
2010,01,19,10,29,25.70
2010,01,19,10,30,29.00
2010,01,19,10,31,33.80
2010,01,19,10,32,27.40
2010,01,19,10,33,30.60
2010,01,19,10,34,30.60
2010,01,19,10,35,19.30
2010,01,19,10,36,27.40
2010,01,19,10,37,24.20
2010,01,19,10,38,19.30
2010,01,19,10,39,20.90
2010,01,19,10,40,17.70
2010,01,19,10,41,19.30
2010,01,19,10,42,22.50
2010,01,19,10,43,20.90
2010,01,19,10,44,19.30
2010,01,19,10,45,17.70
2010,01,19,10,46,16.10
2010,01,19,10,47,19.30
2010,01,19,10,48,24.20
2010,01,19,10,49,27.40
2010,01,19,10,50,20.90
2010,01,19,10,51,20.90
2010,01,19,10,52,22.50
2010,01,19,10,53,19.30
2010,01,19,10,54,16.10
2010,01,19,10,55,20.90
2010,01,19,10,56,30.60
2010,01,19,10,57,24.20
2010,01,19,10,58,25.70
2010,01,19,10,59,29.00
2010,01,19,11,00,25.70
2010,01,19,11,01,27.40
2010,01,19,11,02,20.90
2010,01,19,11,03,20.90
2010,01,19,11,04,16.10
2010,01,19,11,05,22.50
2010,01,19,11,06,27.40
2010,01,19,11,07,27.40
2010,01,19,11,08,27.40
2010,01,19,11,09,25.70
2010,01,19,11,10,19.30
2010,01,19,11,11,22.50
2010,01,19,11,12,25.70
2010,01,19,11,13,25.70
2010,01,19,11,14,24.20
2010,01,19,11,15,27.40
2010,01,19,11,16,24.20
2010,01,19,11,17,27.40
2010,01,19,11,18,27.40
2010,01,19,11,19,25.70
2010,01,19,11,20,25.70
2010,01,19,11,21,24.20
2010,01,19,11,22,25.70
2010,01,19,11,23,30.60
2010,01,19,11,24,24.20
2010,01,19,11,25,29.00
2010,01,19,11,26,19.30
2010,01,19,11,27,22.50
2010,01,19,11,28,25.70
2010,01,19,11,29,22.50
2010,01,19,11,30,25.70
2010,01,19,11,31,20.90
2010,01,19,11,32,22.50
2010,01,19,11,33,22.50
2010,01,19,11,34,24.20
2010,01,19,11,35,22.50
2010,01,19,11,36,25.70
2010,01,19,11,37,22.50
2010,01,19,11,38,24.20
2010,01,19,11,39,22.50
2010,01,19,11,40,22.50
2010,01,19,11,41,25.70
2010,01,19,11,42,30.60
2010,01,19,11,43,27.40
2010,01,19,11,44,30.60
2010,01,19,11,45,27.40
2010,01,19,11,46,32.20
2010,01,19,11,47,32.20
2010,01,19,11,48,27.40
2010,01,19,11,49,32.20
2010,01,19,11,50,29.00
2010,01,19,11,51,35.40
2010,01,19,11,52,38.60
2010,01,19,11,53,37.00
2010,01,19,11,54,32.20
2010,01,19,11,55,24.20
2010,01,19,11,56,27.40
2010,01,19,11,57,25.70
2010,01,19,11,58,30.60
2010,01,19,11,59,22.50
2010,01,19,12,00,32.20
2010,01,19,12,01,27.40
2010,01,19,12,02,27.40
2010,01,19,12,03,27.40
2010,01,19,12,04,24.20
2010,01,19,12,05,29.00
2010,01,19,12,06,33.80
2010,01,19,12,07,29.00
2010,01,19,12,08,29.00
2010,01,19,12,09,32.20
2010,01,19,12,10,30.60
2010,01,19,12,11,29.00
2010,01,19,12,12,29.00
2010,01,19,12,13,38.60
2010,01,19,12,14,29.00
2010,01,19,12,15,29.00
2010,01,19,12,16,32.20
2010,01,19,12,17,32.20
2010,01,19,12,18,33.80
2010,01,19,12,19,30.60
2010,01,19,12,20,37.00
2010,01,19,12,21,30.60
2010,01,19,12,22,25.70
2010,01,19,12,23,33.80
2010,01,19,12,24,25.70
2010,01,19,12,25,33.80
2010,01,19,12,26,32.20
2010,01,19,12,27,27.40
2010,01,19,12,28,33.80
2010,01,19,12,29,24.20
2010,01,19,12,30,30.60
2010,01,19,12,31,27.40
2010,01,19,12,32,24.20
2010,01,19,12,33,24.20
2010,01,19,12,34,24.20
2010,01,19,12,35,20.90
2010,01,19,12,36,29.00
2010,01,19,12,37,30.60
2010,01,19,12,38,29.00
2010,01,19,12,39,27.40
2010,01,19,12,40,25.70
2010,01,19,12,41,24.20
2010,01,19,12,42,29.00
2010,01,19,12,43,25.70
2010,01,19,12,44,20.90
2010,01,19,12,45,19.30
2010,01,19,12,46,22.50
2010,01,19,12,47,24.20
2010,01,19,12,48,24.20
2010,01,19,12,49,22.50
2010,01,19,12,50,20.90
2010,01,19,12,51,20.90
2010,01,19,12,52,25.70
2010,01,19,12,53,22.50
2010,01,19,12,54,22.50
2010,01,19,12,55,25.70
2010,01,19,12,56,24.20
2010,01,19,12,57,24.20
2010,01,19,12,58,22.50
2010,01,19,12,59,20.90
2010,01,19,13,00,25.70
2010,01,19,13,01,22.50
2010,01,19,13,02,20.90
2010,01,19,13,03,20.90
2010,01,19,13,04,29.00
2010,01,19,13,05,24.20
2010,01,19,13,06,20.90
2010,01,19,13,07,27.40
2010,01,19,13,08,25.70
2010,01,19,13,09,22.50
2010,01,19,13,10,20.90
2010,01,19,13,11,24.20
2010,01,19,13,12,25.70
2010,01,19,13,13,22.50
2010,01,19,13,14,25.70
2010,01,19,13,15,25.70
2010,01,19,13,16,24.20
2010,01,19,13,17,24.20
2010,01,19,13,18,27.40
2010,01,19,13,19,22.50
2010,01,19,13,20,22.50
2010,01,19,13,21,22.50
2010,01,19,13,22,20.90
2010,01,19,13,23,22.50
2010,01,19,13,24,20.90
2010,01,19,13,25,25.70
2010,01,19,13,26,27.40
2010,01,19,13,27,20.90
2010,01,19,13,28,22.50
2010,01,19,13,29,20.90
2010,01,19,13,30,29.00
2010,01,19,13,31,24.20
2010,01,19,13,32,19.30
2010,01,19,13,33,25.70
2010,01,19,13,34,22.50
2010,01,19,13,35,24.20
2010,01,19,13,36,25.70
2010,01,19,13,37,25.70
2010,01,19,13,38,27.40
2010,01,19,13,39,24.20
2010,01,19,13,40,27.40
2010,01,19,13,41,22.50
2010,01,19,13,42,27.40
2010,01,19,13,43,27.40
2010,01,19,13,44,27.40
2010,01,19,13,45,33.80
2010,01,19,13,46,27.40
2010,01,19,13,47,25.70
2010,01,19,13,48,35.40
2010,01,19,13,49,29.00
2010,01,19,13,50,27.40
2010,01,19,13,51,25.70
2010,01,19,13,52,30.60
2010,01,19,13,53,27.40
2010,01,19,13,54,27.40
2010,01,19,13,55,30.60
2010,01,19,13,56,22.50
2010,01,19,13,57,25.70
2010,01,19,13,58,22.50
2010,01,19,13,59,29.00
2010,01,19,14,00,27.40
2010,01,19,14,01,24.20
2010,01,19,14,02,24.20
2010,01,19,14,03,25.70
2010,01,19,14,04,29.00
2010,01,19,14,05,25.70
2010,01,19,14,06,29.00
2010,01,19,14,07,27.40
2010,01,19,14,08,25.70
2010,01,19,14,09,25.70
2010,01,19,14,10,32.20
2010,01,19,14,11,32.20
2010,01,19,14,12,24.20
2010,01,19,14,13,25.70
2010,01,19,14,14,32.20
2010,01,19,14,15,30.60
2010,01,19,14,16,24.20
2010,01,19,14,17,25.70
2010,01,19,14,18,35.40
2010,01,19,14,19,29.00
2010,01,19,14,20,33.80
2010,01,19,14,21,32.20
2010,01,19,14,22,24.20
2010,01,19,14,23,30.60
2010,01,19,14,24,27.40
2010,01,19,14,25,27.40
2010,01,19,14,26,32.20
2010,01,19,14,27,27.40
2010,01,19,14,28,32.20
2010,01,19,14,29,32.20
2010,01,19,14,30,29.00
2010,01,19,14,31,40.20
2010,01,19,14,32,38.60
2010,01,19,14,33,30.60
2010,01,19,14,34,33.80
2010,01,19,14,35,35.40
2010,01,19,14,36,30.60
2010,01,19,14,37,25.70
2010,01,19,14,38,35.40
2010,01,19,14,39,29.00
2010,01,19,14,40,30.60
2010,01,19,14,41,35.40
2010,01,19,14,42,35.40
2010,01,19,14,43,35.40
2010,01,19,14,44,32.20
2010,01,19,14,45,37.00
2010,01,19,14,46,33.80
2010,01,19,14,47,29.00
2010,01,19,14,48,30.60
2010,01,19,14,49,30.60
2010,01,19,14,50,29.00
2010,01,19,14,51,35.40
2010,01,19,14,52,29.00
2010,01,19,14,53,30.60
2010,01,19,14,54,35.40
2010,01,19,14,55,32.20
2010,01,19,14,56,25.70
2010,01,19,14,57,30.60
2010,01,19,14,58,30.60
2010,01,19,14,59,27.40
2010,01,19,15,00,29.00
2010,01,19,15,01,29.00
2010,01,19,15,02,22.50
2010,01,19,15,03,25.70
2010,01,19,15,04,29.00
2010,01,19,15,05,30.60
2010,01,19,15,06,20.90
2010,01,19,15,07,27.40
2010,01,19,15,08,33.80
2010,01,19,15,09,27.40
2010,01,19,15,10,20.90
2010,01,19,15,11,24.20
2010,01,19,15,12,33.80
2010,01,19,15,13,27.40
2010,01,19,15,14,27.40
2010,01,19,15,15,29.00
2010,01,19,15,16,27.40
2010,01,19,15,17,30.60
2010,01,19,15,18,29.00
2010,01,19,15,19,27.40
2010,01,19,15,20,32.20
2010,01,19,15,21,29.00
2010,01,19,15,22,27.40
2010,01,19,15,23,24.20
2010,01,19,15,24,30.60
2010,01,19,15,25,25.70
2010,01,19,15,26,22.50
2010,01,19,15,27,25.70
2010,01,19,15,28,24.20
2010,01,19,15,29,25.70
2010,01,19,15,30,25.70
2010,01,19,15,31,22.50
2010,01,19,15,32,22.50
2010,01,19,15,33,20.90
2010,01,19,15,34,27.40
2010,01,19,15,35,30.60
2010,01,19,15,36,30.60
2010,01,19,15,37,27.40
2010,01,19,15,38,29.00
2010,01,19,15,39,20.90
2010,01,19,15,40,20.90
2010,01,19,15,41,22.50
2010,01,19,15,42,29.00
2010,01,19,15,43,25.70
2010,01,19,15,44,22.50
2010,01,19,15,45,25.70
2010,01,19,15,46,25.70
2010,01,19,15,47,24.20
2010,01,19,15,48,27.40
2010,01,19,15,49,25.70
2010,01,19,15,50,29.00
2010,01,19,15,51,24.20
2010,01,19,15,52,25.70
2010,01,19,15,53,20.90
2010,01,19,15,54,25.70
2010,01,19,15,55,25.70
2010,01,19,15,56,25.70
2010,01,19,15,57,29.00
2010,01,19,15,58,25.70
2010,01,19,15,59,25.70
2010,01,19,16,00,27.40
2010,01,19,16,01,25.70
2010,01,19,16,02,30.60
2010,01,19,16,03,27.40
2010,01,19,16,04,22.50
2010,01,19,16,05,30.60
2010,01,19,16,06,22.50
2010,01,19,16,07,24.20
2010,01,19,16,08,19.30
2010,01,19,16,09,25.70
2010,01,19,16,10,24.20
2010,01,19,16,11,30.60
2010,01,19,16,12,27.40
2010,01,19,16,13,25.70
2010,01,19,16,14,20.90
2010,01,19,16,15,22.50
2010,01,19,16,16,27.40
2010,01,19,16,17,29.00
2010,01,19,16,18,29.00
2010,01,19,16,19,25.70
2010,01,19,16,20,24.20
2010,01,19,16,21,24.20
2010,01,19,16,22,25.70
2010,01,19,16,23,27.40
2010,01,19,16,24,20.90
2010,01,19,16,25,22.50
2010,01,19,16,26,19.30
2010,01,19,16,27,22.50
2010,01,19,16,28,25.70
2010,01,19,16,29,30.60
2010,01,19,16,30,24.20
2010,01,19,16,31,22.50
2010,01,19,16,32,25.70
2010,01,19,16,33,20.90
2010,01,19,16,34,20.90
2010,01,19,16,35,20.90
2010,01,19,16,36,22.50
2010,01,19,16,37,19.30
2010,01,19,16,38,17.70
2010,01,19,16,39,20.90
2010,01,19,16,40,19.30
2010,01,19,16,41,17.70
2010,01,19,16,42,19.30
2010,01,19,16,43,19.30
2010,01,19,16,44,20.90
2010,01,19,16,45,19.30
2010,01,19,16,46,22.50
2010,01,19,16,47,20.90
2010,01,19,16,48,25.70
2010,01,19,16,49,25.70
2010,01,19,16,50,25.70
2010,01,19,16,51,22.50
2010,01,19,16,52,22.50
2010,01,19,16,53,19.30
2010,01,19,16,54,20.90
2010,01,19,16,55,19.30
2010,01,19,16,56,22.50
2010,01,19,16,57,22.50
2010,01,19,16,58,19.30
2010,01,19,16,59,24.20
2010,01,19,17,00,24.20
2010,01,19,17,01,22.50
2010,01,19,17,02,20.90
2010,01,19,17,03,32.20
2010,01,19,17,04,32.20
2010,01,19,17,05,27.40
2010,01,19,17,06,27.40
2010,01,19,17,07,25.70
2010,01,19,17,08,20.90
2010,01,19,17,09,19.30
2010,01,19,17,10,25.70
2010,01,19,17,11,22.50
2010,01,19,17,12,27.40
2010,01,19,17,13,25.70
2010,01,19,17,14,20.90
2010,01,19,17,15,20.90
2010,01,19,17,16,30.60
2010,01,19,17,17,29.00
2010,01,19,17,18,32.20
2010,01,19,17,19,24.20
2010,01,19,17,20,27.40
2010,01,19,17,21,27.40
2010,01,19,17,22,29.00
2010,01,19,17,23,27.40
2010,01,19,17,24,25.70
2010,01,19,17,25,22.50
2010,01,19,17,26,24.20
2010,01,19,17,27,22.50
2010,01,19,17,28,29.00
2010,01,19,17,29,27.40
2010,01,19,17,30,30.60
2010,01,19,17,31,27.40
2010,01,19,17,32,25.70
2010,01,19,17,33,20.90
2010,01,19,17,34,29.00
2010,01,19,17,35,25.70
2010,01,19,17,36,25.70
2010,01,19,17,37,29.00
2010,01,19,17,38,29.00